Location: Newark
(5.8900°S, 42.6378°W)
Time: 04:15:34
(UTC+00:00)

deb Explorer IX - Pass Details

Date: 27 October 2019
Orbit: 546 x 1105 km, 38.8° (Epoch: 14 November)

Event Time Altitude Azimuth Distance (km) Brightness Sun altitude
Rises 23:00:10 0° 285° (WNW) 3,844 ? -33.6°
Reaches altitude 10° 23:03:17 10° 273° (W) 2,930 ? -34.3°
Maximum altitude 23:09:21 28° 217° (SW) 1,923 ? -35.7°
Enters shadow 23:13:49 16° 169° (S) 2,514 ? -36.7°
